ASTRO-H (HITOMI) (41337 NORAD) Tracking and Keplerian Element Data

This shows tracking and keplerian element data for the satellite.

Feedback or suggestion? Click here.




ElementValue
Catalog41337
NameASTRO-H (HITOMI)
Epoch Orbit13233
Epoch Day198.95363827
Epoch Year2018
RAAN130.5615
Inclination31.0052
Eccentricity0.0012396
Argument of Perigee349.2773
Mean Anonmoly10.7596
Mean Motion14.98482311
Decay Rate2.24E-06
L11 41337U 16012A 18198.95363827 .00000224 00000-0 11333-4 0 9991
L22 41337 31.0052 130.5615 0012396 349.2773 10.7596 14.98482311132339

Live tracking and technical data element details for ASTRO-H (HITOMI) (NORAD 41337). ASTRO-H (HITOMI) can be tracked NOW for your location showing map with azimuth and elevation plus other details from your city location.

Track the satellite on the map from your city or location and see movement details for azimuth, elevation, latitude, longitude, range, height, and movement on the map or in text.







IsCatalogInMostPopularTable: catalog: 41337, numindb: 47
Update: records affected: 1



GetName: 41337 ASTRO-H (HITOMI)

Hit Count: updated at: Fri, 20 Jul 2018 20:37:51 GMT